Regional Weather Roundup
Issued by NWS

Home | Current Version | Previous Version | Graphics & Text | Print | Product List | Glossary On
Versions: 1 2 3 4 5 6 7 8 9 10 11 12 13 14 15 16 17 18 19 20 21 22 23 24 25 26 27 28 29 30 31 32 33 34 35 36 37 38 39 40 41 42 43 44 45 46 47 48 49 50
000
ASUS45 KABQ 201310
RWRNM
WEATHER ROUNDUP FOR NEW MEXICO
NATIONAL WEATHER SERVICE ALBUQUERQUE NM
700 AM MDT SUN APR 20 2014

NOTE: "FAIR" MEANS FEW OR NO CLOUDS BELOW 12,000 FEET AGL WITH NO
       SIGNIFICANT WEATHER OR OBSTRUCTIONS TO VISION.

      THIS PRODUCT IS RELEASED AS TWO VERSIONS.  ONE VERSION NEAR
      THE TOP OF THE HOUR CONTAINING PRELIMINARY DATA FROM ALBUQUERQUE
      AND OTHER STATIONS.  A FINAL VERSION WITH ADDITIONAL DATA IS
      ISSUED ABOUT 10 MINUTES AFTER THE HOUR.

NMZ501-503-504-510>518-201400-
NORTHWEST PLATEAU/NORTHCENTRAL MOUNTAINS

CITY           SKY/WX    TMP DP  RH WIND       PRES   REMARKS
FARMINGTON     CLEAR     40  32  73 CALM      30.10R
LOS ALAMOS     PTCLDY    42  41  95 W5        30.17R
SANTA FE       MOCLDY    43  41  93 SW5       30.13R
TAOS           CLOUDY    43  39  87 N3        30.19R
ANGEL FIRE     DRIZZLE   40  37  89 W3        30.18S

$$
NMZ402-403-502-505>509-201400-
WESTCENTRAL MOUNTAINS/SOUTHWEST MOUNTAINS

CITY           SKY/WX    TMP DP  RH WIND       PRES   REMARKS
GALLUP         CLEAR     35  31  85 CALM      30.19R
GRANTS         CLEAR     32  30  92 CALM      30.19R
SILVER CITY    PTCLDY    41  39  93 N9        30.18R

$$
NMZ407-409-411-412-201400-
SOUTHERN DESERTS

CITY           SKY/WX    TMP DP  RH WIND       PRES   REMARKS
LORDSBURG      FAIR      43  43 100 CALM      30.14R
DEMING         CLEAR     43  42  97 SW5       30.13R FOG
LAS CRUCES     CLEAR     43  39  86 NE5       30.14R
HOLLOMAN AFB   PTCLDY    46  46  99 S6        30.12R
ALAMOGORDO     PTCLDY    43  41  93 E7        30.14R
T OR C         CLOUDY    51  47  86 S6        30.13R

$$
NMZ519>523-201400-
CENTRAL VALLEYS/CENTRAL HIGHLANDS

CITY           SKY/WX    TMP DP  RH WIND       PRES   REMARKS
ALBUQUERQUE    MOCLDY    46  43  89 SE6       30.14R
DOUBLE EAGLE   FOG       39  39 100 CALM      30.15R VSB 1
MORIARTY ARPT  CLOUDY    44  40  87 CALM      30.15R
CLINES CORNERS CLOUDY    43  40  89 NW12      30.13R
BELEN          CLOUDY    47  46  93 SE5       30.14R
SOCORRO        FAIR      50  49  95 S3        30.14R

$$
NMZ524>526-539-540-201400-
SOUTHCENTRAL MOUNTAINS

CITY           SKY/WX    TMP DP  RH WIND       PRES   REMARKS
RUIDOSO        LGT RAIN  45  39  81 NW9       30.20R

$$
NMZ527>531-201400-
NORTHEAST HIGHLANDS/NORTHEAST PLAINS

CITY           SKY/WX    TMP DP  RH WIND       PRES   REMARKS
LAS VEGAS      LGT RAIN  45  40  82 NW7       30.13R
RATON          LGT RAIN  47  42  83 W10       30.08R
CLAYTON        CLOUDY    51  47  86 W7        30.04R

$$
NMZ532>537-201400-
EASTCENTRAL PLAINS

CITY           SKY/WX    TMP DP  RH WIND       PRES   REMARKS
TUCUMCARI      PTCLDY    51  45  79 SW12      30.03R
CANNON AFB     PTCLDY    50  44  79 SW7       30.08R
CLOVIS AIRPORT MOCLDY    52  48  87 SW10      30.10R

$$
NMZ028-029-538-201400-
SOUTHEAST PLAINS

CITY           SKY/WX    TMP DP  RH WIND       PRES   REMARKS
ROSWELL        PTCLDY    47  44  90 E8        30.07R
ARTESIA        PTCLDY    48  46  93 SE3       30.09S
CARLSBAD       PTCLDY    54  52  93 N6        30.08R
HOBBS          CLOUDY    54  54 100 SW7       30.12R FOG


$$



USA.gov is the U.S. government's official web portal to all federal, state and local government web resources and services.